<?xml version="1.0" encoding="UTF-8"?>
<gpx
version="1.1"
creator="Kashmir3D 9.350 - http://www.kashmir3d.com"
xmlns:xsi="http://www.w3.org/2001/XMLSchema-instance"
xmlns="http://www.topografix.com/GPX/1/1"
xmlns:kashmir3d="http://www.kashmir3d.com/namespace/kashmir3d"
xsi:schemaLocation="http://www.topografix.com/GPX/1/1 http://www.topografix.com/GPX/1/1/gpx.xsd
	http://www.kashmir3d.com/namespace/kashmir3d http://www.kashmir3d.com/namespace/kashmir3d.xsd">
<trk>
 <name>OOYAMA.KML(大山)</name>
 <number>1</number>
 <extensions>
 <kashmir3d:line_color>0000ff</kashmir3d:line_color>
 <kashmir3d:line_size>3</kashmir3d:line_size>
 <kashmir3d:line_style>1</kashmir3d:line_style>
 <kashmir3d:icon>901001</kashmir3d:icon>
 </extensions>
<trkseg>
<trkpt lat="35.427781" lon="139.219451">
 <ele>761.5</ele>
 <time>2020-03-24T13:01:50Z</time>
</trkpt>
<trkpt lat="35.427936" lon="139.219526">
 <ele>766.3</ele>
 <time>2020-03-24T13:01:50Z</time>
</trkpt>
<trkpt lat="35.428056" lon="139.219580">
 <ele>771.2</ele>
 <time>2020-03-24T13:01:50Z</time>
</trkpt>
<trkpt lat="35.428159" lon="139.219634">
 <ele>772.1</ele>
 <time>2020-03-24T13:01:50Z</time>
</trkpt>
<trkpt lat="35.428210" lon="139.219676">
 <ele>772.8</ele>
 <time>2020-03-24T13:01:50Z</time>
</trkpt>
<trkpt lat="35.428253" lon="139.219719">
 <ele>773.7</ele>
 <time>2020-03-24T13:01:50Z</time>
</trkpt>
<trkpt lat="35.428339" lon="139.219719">
 <ele>774.2</ele>
 <time>2020-03-24T13:01:50Z</time>
</trkpt>
<trkpt lat="35.428416" lon="139.219762">
 <ele>775.2</ele>
 <time>2020-03-24T13:01:50Z</time>
</trkpt>
<trkpt lat="35.428459" lon="139.219827">
 <ele>777.4</ele>
 <time>2020-03-24T13:01:51Z</time>
</trkpt>
<trkpt lat="35.428502" lon="139.219955">
 <ele>780.7</ele>
 <time>2020-03-24T13:01:51Z</time>
</trkpt>
<trkpt lat="35.428502" lon="139.220084">
 <ele>784.5</ele>
 <time>2020-03-24T13:01:51Z</time>
</trkpt>
<trkpt lat="35.428502" lon="139.220159">
 <ele>785.7</ele>
 <time>2020-03-24T13:01:51Z</time>
</trkpt>
<trkpt lat="35.428528" lon="139.220277">
 <ele>790.1</ele>
 <time>2020-03-24T13:01:51Z</time>
</trkpt>
<trkpt lat="35.428511" lon="139.220363">
 <ele>792.5</ele>
 <time>2020-03-24T13:01:51Z</time>
</trkpt>
<trkpt lat="35.428554" lon="139.220406">
 <ele>793.7</ele>
 <time>2020-03-24T13:01:51Z</time>
</trkpt>
<trkpt lat="35.428614" lon="139.220438">
 <ele>795</ele>
 <time>2020-03-24T13:01:51Z</time>
</trkpt>
<trkpt lat="35.428699" lon="139.220460">
 <ele>794.4</ele>
 <time>2020-03-24T13:01:51Z</time>
</trkpt>
<trkpt lat="35.428760" lon="139.220556">
 <ele>799</ele>
 <time>2020-03-24T13:01:51Z</time>
</trkpt>
<trkpt lat="35.428828" lon="139.220610">
 <ele>801.4</ele>
 <time>2020-03-24T13:01:52Z</time>
</trkpt>
<trkpt lat="35.428914" lon="139.220599">
 <ele>803.4</ele>
 <time>2020-03-24T13:01:52Z</time>
</trkpt>
<trkpt lat="35.428983" lon="139.220588">
 <ele>805.2</ele>
 <time>2020-03-24T13:01:52Z</time>
</trkpt>
<trkpt lat="35.429060" lon="139.220545">
 <ele>806.8</ele>
 <time>2020-03-24T13:01:52Z</time>
</trkpt>
<trkpt lat="35.429189" lon="139.220524">
 <ele>810.2</ele>
 <time>2020-03-24T13:01:52Z</time>
</trkpt>
<trkpt lat="35.429300" lon="139.220503">
 <ele>811</ele>
 <time>2020-03-24T13:01:52Z</time>
</trkpt>
<trkpt lat="35.429403" lon="139.220513">
 <ele>812</ele>
 <time>2020-03-24T13:01:52Z</time>
</trkpt>
<trkpt lat="35.429489" lon="139.220492">
 <ele>812.3</ele>
 <time>2020-03-24T13:01:52Z</time>
</trkpt>
<trkpt lat="35.429592" lon="139.220492">
 <ele>814.3</ele>
 <time>2020-03-24T13:01:52Z</time>
</trkpt>
<trkpt lat="35.429729" lon="139.220524">
 <ele>818.8</ele>
 <time>2020-03-24T13:01:53Z</time>
</trkpt>
<trkpt lat="35.429815" lon="139.220545">
 <ele>821</ele>
 <time>2020-03-24T13:01:53Z</time>
</trkpt>
<trkpt lat="35.429944" lon="139.220578">
 <ele>825.5</ele>
 <time>2020-03-24T13:01:53Z</time>
</trkpt>
<trkpt lat="35.430021" lon="139.220599">
 <ele>828</ele>
 <time>2020-03-24T13:01:53Z</time>
</trkpt>
<trkpt lat="35.430107" lon="139.220599">
 <ele>831.4</ele>
 <time>2020-03-24T13:01:53Z</time>
</trkpt>
<trkpt lat="35.430279" lon="139.220588">
 <ele>839.5</ele>
 <time>2020-03-24T13:01:53Z</time>
</trkpt>
<trkpt lat="35.430425" lon="139.220588">
 <ele>845.7</ele>
 <time>2020-03-24T13:01:53Z</time>
</trkpt>
<trkpt lat="35.430510" lon="139.220631">
 <ele>850.6</ele>
 <time>2020-03-24T13:01:53Z</time>
</trkpt>
<trkpt lat="35.430579" lon="139.220728">
 <ele>854.4</ele>
 <time>2020-03-24T13:01:53Z</time>
</trkpt>
<trkpt lat="35.430622" lon="139.220835">
 <ele>854.7</ele>
 <time>2020-03-24T13:01:53Z</time>
</trkpt>
<trkpt lat="35.430656" lon="139.220985">
 <ele>858.2</ele>
 <time>2020-03-24T13:01:54Z</time>
</trkpt>
<trkpt lat="35.430682" lon="139.221050">
 <ele>859.9</ele>
 <time>2020-03-24T13:01:54Z</time>
</trkpt>
<trkpt lat="35.430854" lon="139.221243">
 <ele>867.5</ele>
 <time>2020-03-24T13:01:54Z</time>
</trkpt>
<trkpt lat="35.430948" lon="139.221350">
 <ele>867.2</ele>
 <time>2020-03-24T13:01:54Z</time>
</trkpt>
<trkpt lat="35.431043" lon="139.221468">
 <ele>864.4</ele>
 <time>2020-03-24T13:01:54Z</time>
</trkpt>
<trkpt lat="35.431111" lon="139.221597">
 <ele>863.3</ele>
 <time>2020-03-24T13:01:54Z</time>
</trkpt>
<trkpt lat="35.431163" lon="139.221704">
 <ele>860.9</ele>
 <time>2020-03-24T13:01:54Z</time>
</trkpt>
<trkpt lat="35.431189" lon="139.221822">
 <ele>862.9</ele>
 <time>2020-03-24T13:01:54Z</time>
</trkpt>
<trkpt lat="35.431214" lon="139.221929">
 <ele>865.2</ele>
 <time>2020-03-24T13:01:54Z</time>
</trkpt>
<trkpt lat="35.431214" lon="139.221994">
 <ele>866.2</ele>
 <time>2020-03-24T13:01:55Z</time>
</trkpt>
<trkpt lat="35.431223" lon="139.222069">
 <ele>868.4</ele>
 <time>2020-03-24T13:01:55Z</time>
</trkpt>
<trkpt lat="35.431309" lon="139.222187">
 <ele>871.7</ele>
 <time>2020-03-24T13:01:55Z</time>
</trkpt>
<trkpt lat="35.431360" lon="139.222241">
 <ele>872.2</ele>
 <time>2020-03-24T13:01:55Z</time>
</trkpt>
<trkpt lat="35.431480" lon="139.222305">
 <ele>873.4</ele>
 <time>2020-03-24T13:01:55Z</time>
</trkpt>
<trkpt lat="35.431618" lon="139.222369">
 <ele>874.2</ele>
 <time>2020-03-24T13:01:55Z</time>
</trkpt>
<trkpt lat="35.431764" lon="139.222391">
 <ele>874.3</ele>
 <time>2020-03-24T13:01:55Z</time>
</trkpt>
<trkpt lat="35.431875" lon="139.222444">
 <ele>872.1</ele>
 <time>2020-03-24T13:01:55Z</time>
</trkpt>
<trkpt lat="35.431952" lon="139.222466">
 <ele>871.2</ele>
 <time>2020-03-24T13:01:55Z</time>
</trkpt>
<trkpt lat="35.432339" lon="139.222455">
 <ele>870.2</ele>
 <time>2020-03-24T13:01:55Z</time>
</trkpt>
<trkpt lat="35.432502" lon="139.222477">
 <ele>872.3</ele>
 <time>2020-03-24T13:01:56Z</time>
</trkpt>
<trkpt lat="35.432553" lon="139.222477">
 <ele>873.1</ele>
 <time>2020-03-24T13:01:56Z</time>
</trkpt>
<trkpt lat="35.432631" lon="139.222423">
 <ele>875.1</ele>
 <time>2020-03-24T13:01:56Z</time>
</trkpt>
<trkpt lat="35.432708" lon="139.222305">
 <ele>878.9</ele>
 <time>2020-03-24T13:01:56Z</time>
</trkpt>
<trkpt lat="35.432751" lon="139.222208">
 <ele>880</ele>
 <time>2020-03-24T13:01:56Z</time>
</trkpt>
<trkpt lat="35.432811" lon="139.222144">
 <ele>884.2</ele>
 <time>2020-03-24T13:01:56Z</time>
</trkpt>
<trkpt lat="35.432888" lon="139.222133">
 <ele>887.1</ele>
 <time>2020-03-24T13:01:56Z</time>
</trkpt>
<trkpt lat="35.433008" lon="139.222187">
 <ele>891</ele>
 <time>2020-03-24T13:01:56Z</time>
</trkpt>
<trkpt lat="35.433103" lon="139.222251">
 <ele>893.3</ele>
 <time>2020-03-24T13:01:56Z</time>
</trkpt>
<trkpt lat="35.433317" lon="139.222262">
 <ele>895.6</ele>
 <time>2020-03-24T13:01:57Z</time>
</trkpt>
<trkpt lat="35.433429" lon="139.222241">
 <ele>896.3</ele>
 <time>2020-03-24T13:01:57Z</time>
</trkpt>
<trkpt lat="35.433532" lon="139.222176">
 <ele>896.4</ele>
 <time>2020-03-24T13:01:57Z</time>
</trkpt>
<trkpt lat="35.433626" lon="139.222123">
 <ele>897.8</ele>
 <time>2020-03-24T13:01:57Z</time>
</trkpt>
<trkpt lat="35.433721" lon="139.222090">
 <ele>892.5</ele>
 <time>2020-03-24T13:01:57Z</time>
</trkpt>
<trkpt lat="35.433858" lon="139.222058">
 <ele>890.4</ele>
 <time>2020-03-24T13:01:57Z</time>
</trkpt>
<trkpt lat="35.433944" lon="139.222112">
 <ele>889.3</ele>
 <time>2020-03-24T13:01:57Z</time>
</trkpt>
<trkpt lat="35.434012" lon="139.222144">
 <ele>891.2</ele>
 <time>2020-03-24T13:01:57Z</time>
</trkpt>
<trkpt lat="35.434184" lon="139.222144">
 <ele>896</ele>
 <time>2020-03-24T13:01:57Z</time>
</trkpt>
<trkpt lat="35.434304" lon="139.222144">
 <ele>900.3</ele>
 <time>2020-03-24T13:01:57Z</time>
</trkpt>
<trkpt lat="35.434390" lon="139.222123">
 <ele>901.4</ele>
 <time>2020-03-24T13:01:58Z</time>
</trkpt>
<trkpt lat="35.434450" lon="139.222090">
 <ele>902.5</ele>
 <time>2020-03-24T13:01:58Z</time>
</trkpt>
<trkpt lat="35.434510" lon="139.222123">
 <ele>906.1</ele>
 <time>2020-03-24T13:01:58Z</time>
</trkpt>
<trkpt lat="35.434630" lon="139.222123">
 <ele>910.6</ele>
 <time>2020-03-24T13:01:58Z</time>
</trkpt>
<trkpt lat="35.434708" lon="139.222123">
 <ele>915.7</ele>
 <time>2020-03-24T13:01:58Z</time>
</trkpt>
<trkpt lat="35.434793" lon="139.222090">
 <ele>922.9</ele>
 <time>2020-03-24T13:01:58Z</time>
</trkpt>
<trkpt lat="35.434896" lon="139.222090">
 <ele>929.3</ele>
 <time>2020-03-24T13:01:58Z</time>
</trkpt>
<trkpt lat="35.434982" lon="139.222101">
 <ele>934.9</ele>
 <time>2020-03-24T13:01:58Z</time>
</trkpt>
<trkpt lat="35.435111" lon="139.222112">
 <ele>942.4</ele>
 <time>2020-03-24T13:01:58Z</time>
</trkpt>
<trkpt lat="35.435231" lon="139.222176">
 <ele>952.8</ele>
 <time>2020-03-24T13:01:59Z</time>
</trkpt>
<trkpt lat="35.435351" lon="139.222230">
 <ele>958.1</ele>
 <time>2020-03-24T13:01:59Z</time>
</trkpt>
<trkpt lat="35.435420" lon="139.222262">
 <ele>958.2</ele>
 <time>2020-03-24T13:01:59Z</time>
</trkpt>
<trkpt lat="35.435480" lon="139.222520">
 <ele>959.6</ele>
 <time>2020-03-24T13:01:59Z</time>
</trkpt>
<trkpt lat="35.435514" lon="139.222745">
 <ele>961.4</ele>
 <time>2020-03-24T13:01:59Z</time>
</trkpt>
<trkpt lat="35.435566" lon="139.222917">
 <ele>959.8</ele>
 <time>2020-03-24T13:01:59Z</time>
</trkpt>
<trkpt lat="35.435574" lon="139.223035">
 <ele>959.7</ele>
 <time>2020-03-24T13:01:59Z</time>
</trkpt>
<trkpt lat="35.435583" lon="139.223142">
 <ele>959.8</ele>
 <time>2020-03-24T13:01:59Z</time>
</trkpt>
<trkpt lat="35.435583" lon="139.223271">
 <ele>959.7</ele>
 <time>2020-03-24T13:01:59Z</time>
</trkpt>
<trkpt lat="35.435669" lon="139.223453">
 <ele>963.2</ele>
 <time>2020-03-24T13:02:00Z</time>
</trkpt>
<trkpt lat="35.435712" lon="139.223603">
 <ele>966.1</ele>
 <time>2020-03-24T13:02:00Z</time>
</trkpt>
<trkpt lat="35.435789" lon="139.223796">
 <ele>970.7</ele>
 <time>2020-03-24T13:02:00Z</time>
</trkpt>
<trkpt lat="35.435823" lon="139.223947">
 <ele>975.1</ele>
 <time>2020-03-24T13:02:00Z</time>
</trkpt>
<trkpt lat="35.435883" lon="139.224140">
 <ele>977.8</ele>
 <time>2020-03-24T13:02:00Z</time>
</trkpt>
<trkpt lat="35.435926" lon="139.224290">
 <ele>982.4</ele>
 <time>2020-03-24T13:02:00Z</time>
</trkpt>
<trkpt lat="35.435961" lon="139.224461">
 <ele>990.9</ele>
 <time>2020-03-24T13:02:00Z</time>
</trkpt>
<trkpt lat="35.436012" lon="139.224612">
 <ele>997.7</ele>
 <time>2020-03-24T13:02:00Z</time>
</trkpt>
<trkpt lat="35.436055" lon="139.224816">
 <ele>1008.1</ele>
 <time>2020-03-24T13:02:00Z</time>
</trkpt>
<trkpt lat="35.436150" lon="139.225105">
 <ele>1014.2</ele>
 <time>2020-03-24T13:02:00Z</time>
</trkpt>
<trkpt lat="35.436218" lon="139.225331">
 <ele>1019.4</ele>
 <time>2020-03-24T13:02:01Z</time>
</trkpt>
<trkpt lat="35.436278" lon="139.225459">
 <ele>1019.7</ele>
 <time>2020-03-24T13:02:01Z</time>
</trkpt>
<trkpt lat="35.436278" lon="139.225545">
 <ele>1023.5</ele>
 <time>2020-03-24T13:02:01Z</time>
</trkpt>
<trkpt lat="35.436330" lon="139.225706">
 <ele>1029.6</ele>
 <time>2020-03-24T13:02:01Z</time>
</trkpt>
<trkpt lat="35.436433" lon="139.225953">
 <ele>1036.5</ele>
 <time>2020-03-24T13:02:01Z</time>
</trkpt>
<trkpt lat="35.436484" lon="139.226082">
 <ele>1038</ele>
 <time>2020-03-24T13:02:01Z</time>
</trkpt>
<trkpt lat="35.436493" lon="139.226167">
 <ele>1042.8</ele>
 <time>2020-03-24T13:02:01Z</time>
</trkpt>
<trkpt lat="35.436544" lon="139.226275">
 <ele>1049.2</ele>
 <time>2020-03-24T13:02:01Z</time>
</trkpt>
<trkpt lat="35.436622" lon="139.226489">
 <ele>1057.4</ele>
 <time>2020-03-24T13:02:01Z</time>
</trkpt>
<trkpt lat="35.436716" lon="139.226661">
 <ele>1065.8</ele>
 <time>2020-03-24T13:02:02Z</time>
</trkpt>
<trkpt lat="35.436810" lon="139.226822">
 <ele>1072.1</ele>
 <time>2020-03-24T13:02:02Z</time>
</trkpt>
<trkpt lat="35.436871" lon="139.226940">
 <ele>1075.7</ele>
 <time>2020-03-24T13:02:02Z</time>
</trkpt>
<trkpt lat="35.436956" lon="139.227079">
 <ele>1083.2</ele>
 <time>2020-03-24T13:02:02Z</time>
</trkpt>
<trkpt lat="35.437034" lon="139.227240">
 <ele>1086.8</ele>
 <time>2020-03-24T13:02:02Z</time>
</trkpt>
<trkpt lat="35.437085" lon="139.227412">
 <ele>1094.2</ele>
 <time>2020-03-24T13:02:02Z</time>
</trkpt>
<trkpt lat="35.437154" lon="139.227584">
 <ele>1100.1</ele>
 <time>2020-03-24T13:02:02Z</time>
</trkpt>
<trkpt lat="35.437180" lon="139.227669">
 <ele>1103.3</ele>
 <time>2020-03-24T13:02:02Z</time>
</trkpt>
<trkpt lat="35.437180" lon="139.227755">
 <ele>1107.3</ele>
 <time>2020-03-24T13:02:02Z</time>
</trkpt>
<trkpt lat="35.437240" lon="139.227895">
 <ele>1117.3</ele>
 <time>2020-03-24T13:02:02Z</time>
</trkpt>
<trkpt lat="35.437317" lon="139.228023">
 <ele>1123.7</ele>
 <time>2020-03-24T13:02:03Z</time>
</trkpt>
<trkpt lat="35.437351" lon="139.228109">
 <ele>1127.8</ele>
 <time>2020-03-24T13:02:03Z</time>
</trkpt>
<trkpt lat="35.437420" lon="139.228238">
 <ele>1133.4</ele>
 <time>2020-03-24T13:02:03Z</time>
</trkpt>
<trkpt lat="35.437463" lon="139.228410">
 <ele>1138.7</ele>
 <time>2020-03-24T13:02:03Z</time>
</trkpt>
<trkpt lat="35.437514" lon="139.228517">
 <ele>1140.5</ele>
 <time>2020-03-24T13:02:03Z</time>
</trkpt>
<trkpt lat="35.437583" lon="139.228635">
 <ele>1143.4</ele>
 <time>2020-03-24T13:02:03Z</time>
</trkpt>
<trkpt lat="35.437686" lon="139.228796">
 <ele>1149.3</ele>
 <time>2020-03-24T13:02:03Z</time>
</trkpt>
<trkpt lat="35.437737" lon="139.228903">
 <ele>1151.6</ele>
 <time>2020-03-24T13:02:03Z</time>
</trkpt>
<trkpt lat="35.437780" lon="139.228968">
 <ele>1153.9</ele>
 <time>2020-03-24T13:02:03Z</time>
</trkpt>
<trkpt lat="35.437806" lon="139.229043">
 <ele>1156</ele>
 <time>2020-03-24T13:02:04Z</time>
</trkpt>
<trkpt lat="35.437840" lon="139.229129">
 <ele>1158.1</ele>
 <time>2020-03-24T13:02:04Z</time>
</trkpt>
<trkpt lat="35.437909" lon="139.229193">
 <ele>1159.2</ele>
 <time>2020-03-24T13:02:04Z</time>
</trkpt>
<trkpt lat="35.437986" lon="139.229343">
 <ele>1161.3</ele>
 <time>2020-03-24T13:02:04Z</time>
</trkpt>
<trkpt lat="35.438072" lon="139.229472">
 <ele>1165.3</ele>
 <time>2020-03-24T13:02:04Z</time>
</trkpt>
<trkpt lat="35.438175" lon="139.229633">
 <ele>1171.8</ele>
 <time>2020-03-24T13:02:04Z</time>
</trkpt>
<trkpt lat="35.438261" lon="139.229740">
 <ele>1174.5</ele>
 <time>2020-03-24T13:02:04Z</time>
</trkpt>
<trkpt lat="35.438321" lon="139.229837">
 <ele>1174.6</ele>
 <time>2020-03-24T13:02:04Z</time>
</trkpt>
<trkpt lat="35.438415" lon="139.229890">
 <ele>1172.4</ele>
 <time>2020-03-24T13:02:04Z</time>
</trkpt>
<trkpt lat="35.438484" lon="139.229955">
 <ele>1172.1</ele>
 <time>2020-03-24T13:02:04Z</time>
</trkpt>
<trkpt lat="35.438553" lon="139.230030">
 <ele>1171.4</ele>
 <time>2020-03-24T13:02:05Z</time>
</trkpt>
<trkpt lat="35.438604" lon="139.230083">
 <ele>1173.1</ele>
 <time>2020-03-24T13:02:05Z</time>
</trkpt>
<trkpt lat="35.438690" lon="139.230094">
 <ele>1177.3</ele>
 <time>2020-03-24T13:02:05Z</time>
</trkpt>
<trkpt lat="35.438733" lon="139.230105">
 <ele>1179.3</ele>
 <time>2020-03-24T13:02:05Z</time>
</trkpt>
<trkpt lat="35.438862" lon="139.230105">
 <ele>1188</ele>
 <time>2020-03-24T13:02:05Z</time>
</trkpt>
<trkpt lat="35.438956" lon="139.230159">
 <ele>1191.6</ele>
 <time>2020-03-24T13:02:05Z</time>
</trkpt>
<trkpt lat="35.439085" lon="139.230223">
 <ele>1196.5</ele>
 <time>2020-03-24T13:02:05Z</time>
</trkpt>
<trkpt lat="35.439179" lon="139.230223">
 <ele>1199.8</ele>
 <time>2020-03-24T13:02:05Z</time>
</trkpt>
<trkpt lat="35.439257" lon="139.230212">
 <ele>1200.7</ele>
 <time>2020-03-24T13:02:05Z</time>
</trkpt>
<trkpt lat="35.439334" lon="139.230201">
 <ele>1204.7</ele>
 <time>2020-03-24T13:02:06Z</time>
</trkpt>
<trkpt lat="35.439411" lon="139.230191">
 <ele>1208.1</ele>
 <time>2020-03-24T13:02:06Z</time>
</trkpt>
<trkpt lat="35.439488" lon="139.230159">
 <ele>1212.2</ele>
 <time>2020-03-24T13:02:06Z</time>
</trkpt>
<trkpt lat="35.439583" lon="139.230159">
 <ele>1214.9</ele>
 <time>2020-03-24T13:02:06Z</time>
</trkpt>
<trkpt lat="35.439677" lon="139.230191">
 <ele>1215.8</ele>
 <time>2020-03-24T13:02:06Z</time>
</trkpt>
<trkpt lat="35.439815" lon="139.230266">
 <ele>1220.2</ele>
 <time>2020-03-24T13:02:06Z</time>
</trkpt>
<trkpt lat="35.439969" lon="139.230319">
 <ele>1223.7</ele>
 <time>2020-03-24T13:02:06Z</time>
</trkpt>
<trkpt lat="35.440098" lon="139.230362">
 <ele>1227.2</ele>
 <time>2020-03-24T13:02:06Z</time>
</trkpt>
<trkpt lat="35.440192" lon="139.230352">
 <ele>1229.5</ele>
 <time>2020-03-24T13:02:06Z</time>
</trkpt>
<trkpt lat="35.440330" lon="139.230395">
 <ele>1234.1</ele>
 <time>2020-03-24T13:02:06Z</time>
</trkpt>
<trkpt lat="35.440433" lon="139.230480">
 <ele>1238.3</ele>
 <time>2020-03-24T13:02:07Z</time>
</trkpt>
<trkpt lat="35.440570" lon="139.230577">
 <ele>1243.8</ele>
 <time>2020-03-24T13:02:07Z</time>
</trkpt>
<trkpt lat="35.440690" lon="139.230781">
 <ele>1247.8</ele>
 <time>2020-03-24T13:02:07Z</time>
</trkpt>
<trkpt lat="35.440802" lon="139.231028">
 <ele>1251.6</ele>
 <time>2020-03-24T13:02:07Z</time>
</trkpt>
<trkpt lat="35.440833" lon="139.231167">
 <ele>1251.2</ele>
 <time>2020-03-24T13:02:07Z</time>
</trkpt>
<trkpt lat="35.440802" lon="139.231028">
 <ele>1251.6</ele>
 <time>2020-03-24T13:02:07Z</time>
</trkpt>
<trkpt lat="35.440690" lon="139.230781">
 <ele>1247.8</ele>
 <time>2020-03-24T13:02:07Z</time>
</trkpt>
<trkpt lat="35.440570" lon="139.230577">
 <ele>1243.8</ele>
 <time>2020-03-24T13:02:07Z</time>
</trkpt>
<trkpt lat="35.440433" lon="139.230480">
 <ele>1238.3</ele>
 <time>2020-03-24T13:02:07Z</time>
</trkpt>
<trkpt lat="35.440330" lon="139.230395">
 <ele>1234.1</ele>
 <time>2020-03-24T13:02:08Z</time>
</trkpt>
<trkpt lat="35.440192" lon="139.230352">
 <ele>1229.5</ele>
 <time>2020-03-24T13:02:08Z</time>
</trkpt>
<trkpt lat="35.440098" lon="139.230362">
 <ele>1227.2</ele>
 <time>2020-03-24T13:02:08Z</time>
</trkpt>
<trkpt lat="35.439969" lon="139.230319">
 <ele>1223.7</ele>
 <time>2020-03-24T13:02:08Z</time>
</trkpt>
<trkpt lat="35.439815" lon="139.230266">
 <ele>1220.2</ele>
 <time>2020-03-24T13:02:08Z</time>
</trkpt>
<trkpt lat="35.439677" lon="139.230191">
 <ele>1215.8</ele>
 <time>2020-03-24T13:02:08Z</time>
</trkpt>
<trkpt lat="35.439583" lon="139.230159">
 <ele>1214.9</ele>
 <time>2020-03-24T13:02:08Z</time>
</trkpt>
<trkpt lat="35.439488" lon="139.230159">
 <ele>1212.2</ele>
 <time>2020-03-24T13:02:08Z</time>
</trkpt>
<trkpt lat="35.439411" lon="139.230191">
 <ele>1208.1</ele>
 <time>2020-03-24T13:02:08Z</time>
</trkpt>
<trkpt lat="35.439334" lon="139.230201">
 <ele>1204.7</ele>
 <time>2020-03-24T13:02:08Z</time>
</trkpt>
<trkpt lat="35.439257" lon="139.230212">
 <ele>1200.7</ele>
 <time>2020-03-24T13:02:09Z</time>
</trkpt>
<trkpt lat="35.439179" lon="139.230223">
 <ele>1199.8</ele>
 <time>2020-03-24T13:02:09Z</time>
</trkpt>
<trkpt lat="35.439085" lon="139.230223">
 <ele>1196.5</ele>
 <time>2020-03-24T13:02:09Z</time>
</trkpt>
<trkpt lat="35.438956" lon="139.230159">
 <ele>1191.6</ele>
 <time>2020-03-24T13:02:09Z</time>
</trkpt>
<trkpt lat="35.438862" lon="139.230105">
 <ele>1188</ele>
 <time>2020-03-24T13:02:09Z</time>
</trkpt>
<trkpt lat="35.438733" lon="139.230105">
 <ele>1179.3</ele>
 <time>2020-03-24T13:02:09Z</time>
</trkpt>
<trkpt lat="35.438690" lon="139.230094">
 <ele>1177.3</ele>
 <time>2020-03-24T13:02:09Z</time>
</trkpt>
<trkpt lat="35.438604" lon="139.230083">
 <ele>1173.1</ele>
 <time>2020-03-24T13:02:09Z</time>
</trkpt>
<trkpt lat="35.438553" lon="139.230030">
 <ele>1171.4</ele>
 <time>2020-03-24T13:02:09Z</time>
</trkpt>
<trkpt lat="35.438484" lon="139.229955">
 <ele>1172.1</ele>
 <time>2020-03-24T13:02:10Z</time>
</trkpt>
<trkpt lat="35.438415" lon="139.229890">
 <ele>1172.4</ele>
 <time>2020-03-24T13:02:10Z</time>
</trkpt>
<trkpt lat="35.438321" lon="139.229837">
 <ele>1174.6</ele>
 <time>2020-03-24T13:02:10Z</time>
</trkpt>
<trkpt lat="35.438261" lon="139.229740">
 <ele>1174.5</ele>
 <time>2020-03-24T13:02:10Z</time>
</trkpt>
<trkpt lat="35.438175" lon="139.229633">
 <ele>1171.8</ele>
 <time>2020-03-24T13:02:10Z</time>
</trkpt>
<trkpt lat="35.438072" lon="139.229472">
 <ele>1165.3</ele>
 <time>2020-03-24T13:02:10Z</time>
</trkpt>
<trkpt lat="35.437986" lon="139.229343">
 <ele>1161.3</ele>
 <time>2020-03-24T13:02:10Z</time>
</trkpt>
<trkpt lat="35.437909" lon="139.229193">
 <ele>1159.2</ele>
 <time>2020-03-24T13:02:10Z</time>
</trkpt>
<trkpt lat="35.437840" lon="139.229129">
 <ele>1158.1</ele>
 <time>2020-03-24T13:02:10Z</time>
</trkpt>
<trkpt lat="35.437806" lon="139.229043">
 <ele>1156</ele>
 <time>2020-03-24T13:02:10Z</time>
</trkpt>
<trkpt lat="35.437780" lon="139.228968">
 <ele>1153.9</ele>
 <time>2020-03-24T13:02:11Z</time>
</trkpt>
<trkpt lat="35.437737" lon="139.228903">
 <ele>1151.6</ele>
 <time>2020-03-24T13:02:11Z</time>
</trkpt>
<trkpt lat="35.437686" lon="139.228796">
 <ele>1149.3</ele>
 <time>2020-03-24T13:02:11Z</time>
</trkpt>
<trkpt lat="35.437583" lon="139.228635">
 <ele>1143.4</ele>
 <time>2020-03-24T13:02:11Z</time>
</trkpt>
<trkpt lat="35.437514" lon="139.228517">
 <ele>1140.5</ele>
 <time>2020-03-24T13:02:11Z</time>
</trkpt>
<trkpt lat="35.437463" lon="139.228410">
 <ele>1138.7</ele>
 <time>2020-03-24T13:02:11Z</time>
</trkpt>
<trkpt lat="35.437420" lon="139.228238">
 <ele>1133.4</ele>
 <time>2020-03-24T13:02:11Z</time>
</trkpt>
<trkpt lat="35.437351" lon="139.228109">
 <ele>1127.8</ele>
 <time>2020-03-24T13:02:11Z</time>
</trkpt>
<trkpt lat="35.437317" lon="139.228023">
 <ele>1123.7</ele>
 <time>2020-03-24T13:02:11Z</time>
</trkpt>
<trkpt lat="35.437240" lon="139.227895">
 <ele>1117.3</ele>
 <time>2020-03-24T13:02:12Z</time>
</trkpt>
<trkpt lat="35.437180" lon="139.227755">
 <ele>1107.3</ele>
 <time>2020-03-24T13:02:12Z</time>
</trkpt>
<trkpt lat="35.437180" lon="139.227669">
 <ele>1103.3</ele>
 <time>2020-03-24T13:02:12Z</time>
</trkpt>
<trkpt lat="35.437154" lon="139.227584">
 <ele>1100.1</ele>
 <time>2020-03-24T13:02:12Z</time>
</trkpt>
<trkpt lat="35.437085" lon="139.227412">
 <ele>1094.2</ele>
 <time>2020-03-24T13:02:12Z</time>
</trkpt>
<trkpt lat="35.437034" lon="139.227240">
 <ele>1086.8</ele>
 <time>2020-03-24T13:02:12Z</time>
</trkpt>
<trkpt lat="35.436956" lon="139.227079">
 <ele>1083.2</ele>
 <time>2020-03-24T13:02:12Z</time>
</trkpt>
<trkpt lat="35.436871" lon="139.226940">
 <ele>1075.7</ele>
 <time>2020-03-24T13:02:12Z</time>
</trkpt>
<trkpt lat="35.436810" lon="139.226822">
 <ele>1072.1</ele>
 <time>2020-03-24T13:02:12Z</time>
</trkpt>
<trkpt lat="35.436716" lon="139.226661">
 <ele>1065.8</ele>
 <time>2020-03-24T13:02:12Z</time>
</trkpt>
<trkpt lat="35.436622" lon="139.226489">
 <ele>1057.4</ele>
 <time>2020-03-24T13:02:13Z</time>
</trkpt>
<trkpt lat="35.436544" lon="139.226275">
 <ele>1049.2</ele>
 <time>2020-03-24T13:02:13Z</time>
</trkpt>
<trkpt lat="35.436493" lon="139.226167">
 <ele>1042.8</ele>
 <time>2020-03-24T13:02:13Z</time>
</trkpt>
<trkpt lat="35.436484" lon="139.226082">
 <ele>1038</ele>
 <time>2020-03-24T13:02:13Z</time>
</trkpt>
<trkpt lat="35.436433" lon="139.225953">
 <ele>1036.5</ele>
 <time>2020-03-24T13:02:13Z</time>
</trkpt>
<trkpt lat="35.436330" lon="139.225706">
 <ele>1029.6</ele>
 <time>2020-03-24T13:02:13Z</time>
</trkpt>
<trkpt lat="35.436278" lon="139.225545">
 <ele>1023.5</ele>
 <time>2020-03-24T13:02:13Z</time>
</trkpt>
<trkpt lat="35.436278" lon="139.225459">
 <ele>1019.7</ele>
 <time>2020-03-24T13:02:13Z</time>
</trkpt>
<trkpt lat="35.436218" lon="139.225331">
 <ele>1019.4</ele>
 <time>2020-03-24T13:02:13Z</time>
</trkpt>
<trkpt lat="35.436150" lon="139.225105">
 <ele>1014.2</ele>
 <time>2020-03-24T13:02:14Z</time>
</trkpt>
<trkpt lat="35.436055" lon="139.224816">
 <ele>1008.1</ele>
 <time>2020-03-24T13:02:14Z</time>
</trkpt>
<trkpt lat="35.436012" lon="139.224612">
 <ele>997.7</ele>
 <time>2020-03-24T13:02:14Z</time>
</trkpt>
<trkpt lat="35.435961" lon="139.224461">
 <ele>990.9</ele>
 <time>2020-03-24T13:02:14Z</time>
</trkpt>
<trkpt lat="35.435926" lon="139.224290">
 <ele>982.4</ele>
 <time>2020-03-24T13:02:14Z</time>
</trkpt>
<trkpt lat="35.435883" lon="139.224140">
 <ele>977.8</ele>
 <time>2020-03-24T13:02:14Z</time>
</trkpt>
<trkpt lat="35.435823" lon="139.223947">
 <ele>975.1</ele>
 <time>2020-03-24T13:02:14Z</time>
</trkpt>
<trkpt lat="35.435789" lon="139.223796">
 <ele>970.7</ele>
 <time>2020-03-24T13:02:14Z</time>
</trkpt>
<trkpt lat="35.435712" lon="139.223603">
 <ele>966.1</ele>
 <time>2020-03-24T13:02:14Z</time>
</trkpt>
<trkpt lat="35.435669" lon="139.223453">
 <ele>963.2</ele>
 <time>2020-03-24T13:02:15Z</time>
</trkpt>
<trkpt lat="35.435583" lon="139.223271">
 <ele>959.7</ele>
 <time>2020-03-24T13:02:15Z</time>
</trkpt>
<trkpt lat="35.435583" lon="139.223142">
 <ele>959.8</ele>
 <time>2020-03-24T13:02:15Z</time>
</trkpt>
<trkpt lat="35.435574" lon="139.223035">
 <ele>959.7</ele>
 <time>2020-03-24T13:02:15Z</time>
</trkpt>
<trkpt lat="35.435566" lon="139.222917">
 <ele>959.8</ele>
 <time>2020-03-24T13:02:15Z</time>
</trkpt>
<trkpt lat="35.435514" lon="139.222745">
 <ele>961.4</ele>
 <time>2020-03-24T13:02:15Z</time>
</trkpt>
<trkpt lat="35.435480" lon="139.222520">
 <ele>959.6</ele>
 <time>2020-03-24T13:02:15Z</time>
</trkpt>
<trkpt lat="35.435420" lon="139.222262">
 <ele>958.2</ele>
 <time>2020-03-24T13:02:15Z</time>
</trkpt>
<trkpt lat="35.435351" lon="139.222230">
 <ele>958.1</ele>
 <time>2020-03-24T13:02:15Z</time>
</trkpt>
<trkpt lat="35.435231" lon="139.222176">
 <ele>952.8</ele>
 <time>2020-03-24T13:02:15Z</time>
</trkpt>
<trkpt lat="35.435111" lon="139.222112">
 <ele>942.4</ele>
 <time>2020-03-24T13:02:16Z</time>
</trkpt>
<trkpt lat="35.434982" lon="139.222101">
 <ele>934.9</ele>
 <time>2020-03-24T13:02:16Z</time>
</trkpt>
<trkpt lat="35.434896" lon="139.222090">
 <ele>929.3</ele>
 <time>2020-03-24T13:02:16Z</time>
</trkpt>
<trkpt lat="35.434793" lon="139.222090">
 <ele>922.9</ele>
 <time>2020-03-24T13:02:16Z</time>
</trkpt>
<trkpt lat="35.434708" lon="139.222123">
 <ele>915.7</ele>
 <time>2020-03-24T13:02:16Z</time>
</trkpt>
<trkpt lat="35.434630" lon="139.222123">
 <ele>910.6</ele>
 <time>2020-03-24T13:02:16Z</time>
</trkpt>
<trkpt lat="35.434510" lon="139.222123">
 <ele>906.1</ele>
 <time>2020-03-24T13:02:16Z</time>
</trkpt>
<trkpt lat="35.434450" lon="139.222090">
 <ele>902.5</ele>
 <time>2020-03-24T13:02:16Z</time>
</trkpt>
<trkpt lat="35.434390" lon="139.222123">
 <ele>901.4</ele>
 <time>2020-03-24T13:02:16Z</time>
</trkpt>
<trkpt lat="35.434304" lon="139.222144">
 <ele>900.3</ele>
 <time>2020-03-24T13:02:17Z</time>
</trkpt>
<trkpt lat="35.434184" lon="139.222144">
 <ele>896</ele>
 <time>2020-03-24T13:02:17Z</time>
</trkpt>
<trkpt lat="35.434012" lon="139.222144">
 <ele>891.2</ele>
 <time>2020-03-24T13:02:17Z</time>
</trkpt>
<trkpt lat="35.433944" lon="139.222112">
 <ele>889.3</ele>
 <time>2020-03-24T13:02:17Z</time>
</trkpt>
<trkpt lat="35.433858" lon="139.222058">
 <ele>890.4</ele>
 <time>2020-03-24T13:02:17Z</time>
</trkpt>
<trkpt lat="35.433721" lon="139.222090">
 <ele>892.5</ele>
 <time>2020-03-24T13:02:17Z</time>
</trkpt>
<trkpt lat="35.433626" lon="139.222123">
 <ele>897.8</ele>
 <time>2020-03-24T13:02:17Z</time>
</trkpt>
<trkpt lat="35.433532" lon="139.222176">
 <ele>896.4</ele>
 <time>2020-03-24T13:02:17Z</time>
</trkpt>
<trkpt lat="35.433429" lon="139.222241">
 <ele>896.3</ele>
 <time>2020-03-24T13:02:17Z</time>
</trkpt>
<trkpt lat="35.433317" lon="139.222262">
 <ele>895.6</ele>
 <time>2020-03-24T13:02:17Z</time>
</trkpt>
<trkpt lat="35.433103" lon="139.222251">
 <ele>893.3</ele>
 <time>2020-03-24T13:02:18Z</time>
</trkpt>
<trkpt lat="35.433008" lon="139.222187">
 <ele>891</ele>
 <time>2020-03-24T13:02:18Z</time>
</trkpt>
<trkpt lat="35.432888" lon="139.222133">
 <ele>887.1</ele>
 <time>2020-03-24T13:02:18Z</time>
</trkpt>
<trkpt lat="35.432811" lon="139.222144">
 <ele>884.2</ele>
 <time>2020-03-24T13:02:18Z</time>
</trkpt>
<trkpt lat="35.432751" lon="139.222208">
 <ele>880</ele>
 <time>2020-03-24T13:02:18Z</time>
</trkpt>
<trkpt lat="35.432708" lon="139.222305">
 <ele>878.9</ele>
 <time>2020-03-24T13:02:18Z</time>
</trkpt>
<trkpt lat="35.432631" lon="139.222423">
 <ele>875.1</ele>
 <time>2020-03-24T13:02:18Z</time>
</trkpt>
<trkpt lat="35.432553" lon="139.222477">
 <ele>873.1</ele>
 <time>2020-03-24T13:02:18Z</time>
</trkpt>
<trkpt lat="35.432502" lon="139.222477">
 <ele>872.3</ele>
 <time>2020-03-24T13:02:18Z</time>
</trkpt>
<trkpt lat="35.432339" lon="139.222455">
 <ele>870.2</ele>
 <time>2020-03-24T13:02:19Z</time>
</trkpt>
<trkpt lat="35.431952" lon="139.222466">
 <ele>871.2</ele>
 <time>2020-03-24T13:02:19Z</time>
</trkpt>
<trkpt lat="35.431875" lon="139.222444">
 <ele>872.1</ele>
 <time>2020-03-24T13:02:19Z</time>
</trkpt>
<trkpt lat="35.431764" lon="139.222391">
 <ele>874.3</ele>
 <time>2020-03-24T13:02:19Z</time>
</trkpt>
<trkpt lat="35.431618" lon="139.222369">
 <ele>874.2</ele>
 <time>2020-03-24T13:02:19Z</time>
</trkpt>
<trkpt lat="35.431480" lon="139.222305">
 <ele>873.4</ele>
 <time>2020-03-24T13:02:19Z</time>
</trkpt>
<trkpt lat="35.431360" lon="139.222241">
 <ele>872.2</ele>
 <time>2020-03-24T13:02:19Z</time>
</trkpt>
<trkpt lat="35.431309" lon="139.222187">
 <ele>871.7</ele>
 <time>2020-03-24T13:02:19Z</time>
</trkpt>
<trkpt lat="35.431223" lon="139.222069">
 <ele>868.4</ele>
 <time>2020-03-24T13:02:19Z</time>
</trkpt>
<trkpt lat="35.431214" lon="139.221994">
 <ele>866.2</ele>
 <time>2020-03-24T13:02:19Z</time>
</trkpt>
<trkpt lat="35.431214" lon="139.221929">
 <ele>865.2</ele>
 <time>2020-03-24T13:02:20Z</time>
</trkpt>
<trkpt lat="35.431189" lon="139.221822">
 <ele>862.9</ele>
 <time>2020-03-24T13:02:20Z</time>
</trkpt>
<trkpt lat="35.431163" lon="139.221704">
 <ele>860.9</ele>
 <time>2020-03-24T13:02:20Z</time>
</trkpt>
<trkpt lat="35.431111" lon="139.221597">
 <ele>863.3</ele>
 <time>2020-03-24T13:02:20Z</time>
</trkpt>
<trkpt lat="35.431043" lon="139.221468">
 <ele>864.4</ele>
 <time>2020-03-24T13:02:20Z</time>
</trkpt>
<trkpt lat="35.430948" lon="139.221350">
 <ele>867.2</ele>
 <time>2020-03-24T13:02:20Z</time>
</trkpt>
<trkpt lat="35.430854" lon="139.221243">
 <ele>867.5</ele>
 <time>2020-03-24T13:02:20Z</time>
</trkpt>
<trkpt lat="35.430682" lon="139.221050">
 <ele>859.9</ele>
 <time>2020-03-24T13:02:20Z</time>
</trkpt>
<trkpt lat="35.430656" lon="139.220985">
 <ele>858.2</ele>
 <time>2020-03-24T13:02:20Z</time>
</trkpt>
<trkpt lat="35.430622" lon="139.220835">
 <ele>854.7</ele>
 <time>2020-03-24T13:02:21Z</time>
</trkpt>
<trkpt lat="35.430579" lon="139.220728">
 <ele>854.4</ele>
 <time>2020-03-24T13:02:21Z</time>
</trkpt>
<trkpt lat="35.430510" lon="139.220631">
 <ele>850.6</ele>
 <time>2020-03-24T13:02:21Z</time>
</trkpt>
<trkpt lat="35.430425" lon="139.220588">
 <ele>845.7</ele>
 <time>2020-03-24T13:02:21Z</time>
</trkpt>
<trkpt lat="35.430279" lon="139.220588">
 <ele>839.5</ele>
 <time>2020-03-24T13:02:21Z</time>
</trkpt>
<trkpt lat="35.430107" lon="139.220599">
 <ele>831.4</ele>
 <time>2020-03-24T13:02:21Z</time>
</trkpt>
<trkpt lat="35.430021" lon="139.220599">
 <ele>828</ele>
 <time>2020-03-24T13:02:21Z</time>
</trkpt>
<trkpt lat="35.429944" lon="139.220578">
 <ele>825.5</ele>
 <time>2020-03-24T13:02:21Z</time>
</trkpt>
<trkpt lat="35.429815" lon="139.220545">
 <ele>821</ele>
 <time>2020-03-24T13:02:21Z</time>
</trkpt>
<trkpt lat="35.429729" lon="139.220524">
 <ele>818.8</ele>
 <time>2020-03-24T13:02:21Z</time>
</trkpt>
<trkpt lat="35.429592" lon="139.220492">
 <ele>814.3</ele>
 <time>2020-03-24T13:02:22Z</time>
</trkpt>
<trkpt lat="35.429489" lon="139.220492">
 <ele>812.3</ele>
 <time>2020-03-24T13:02:22Z</time>
</trkpt>
<trkpt lat="35.429403" lon="139.220513">
 <ele>812</ele>
 <time>2020-03-24T13:02:22Z</time>
</trkpt>
<trkpt lat="35.429300" lon="139.220503">
 <ele>811</ele>
 <time>2020-03-24T13:02:22Z</time>
</trkpt>
<trkpt lat="35.429189" lon="139.220524">
 <ele>810.2</ele>
 <time>2020-03-24T13:02:22Z</time>
</trkpt>
<trkpt lat="35.429060" lon="139.220545">
 <ele>806.8</ele>
 <time>2020-03-24T13:02:22Z</time>
</trkpt>
<trkpt lat="35.428983" lon="139.220588">
 <ele>805.2</ele>
 <time>2020-03-24T13:02:22Z</time>
</trkpt>
<trkpt lat="35.428914" lon="139.220599">
 <ele>803.4</ele>
 <time>2020-03-24T13:02:22Z</time>
</trkpt>
<trkpt lat="35.428828" lon="139.220610">
 <ele>801.4</ele>
 <time>2020-03-24T13:02:22Z</time>
</trkpt>
<trkpt lat="35.428760" lon="139.220556">
 <ele>799</ele>
 <time>2020-03-24T13:02:23Z</time>
</trkpt>
<trkpt lat="35.428699" lon="139.220460">
 <ele>794.4</ele>
 <time>2020-03-24T13:02:23Z</time>
</trkpt>
<trkpt lat="35.428614" lon="139.220438">
 <ele>795</ele>
 <time>2020-03-24T13:02:23Z</time>
</trkpt>
<trkpt lat="35.428554" lon="139.220406">
 <ele>793.7</ele>
 <time>2020-03-24T13:02:23Z</time>
</trkpt>
<trkpt lat="35.428511" lon="139.220363">
 <ele>792.5</ele>
 <time>2020-03-24T13:02:23Z</time>
</trkpt>
<trkpt lat="35.428528" lon="139.220277">
 <ele>790.1</ele>
 <time>2020-03-24T13:02:23Z</time>
</trkpt>
<trkpt lat="35.428502" lon="139.220159">
 <ele>785.7</ele>
 <time>2020-03-24T13:02:23Z</time>
</trkpt>
<trkpt lat="35.428502" lon="139.220084">
 <ele>784.5</ele>
 <time>2020-03-24T13:02:23Z</time>
</trkpt>
<trkpt lat="35.428502" lon="139.219955">
 <ele>780.7</ele>
 <time>2020-03-24T13:02:23Z</time>
</trkpt>
<trkpt lat="35.428459" lon="139.219827">
 <ele>777.4</ele>
 <time>2020-03-24T13:02:23Z</time>
</trkpt>
<trkpt lat="35.428416" lon="139.219762">
 <ele>775.2</ele>
 <time>2020-03-24T13:02:24Z</time>
</trkpt>
<trkpt lat="35.428339" lon="139.219719">
 <ele>774.2</ele>
 <time>2020-03-24T13:02:24Z</time>
</trkpt>
<trkpt lat="35.428253" lon="139.219719">
 <ele>773.7</ele>
 <time>2020-03-24T13:02:24Z</time>
</trkpt>
<trkpt lat="35.428210" lon="139.219676">
 <ele>772.8</ele>
 <time>2020-03-24T13:02:24Z</time>
</trkpt>
<trkpt lat="35.428159" lon="139.219634">
 <ele>772.1</ele>
 <time>2020-03-24T13:02:24Z</time>
</trkpt>
<trkpt lat="35.428056" lon="139.219580">
 <ele>771.2</ele>
 <time>2020-03-24T13:02:24Z</time>
</trkpt>
<trkpt lat="35.427936" lon="139.219526">
 <ele>766.3</ele>
 <time>2020-03-24T13:02:24Z</time>
</trkpt>
<trkpt lat="35.427781" lon="139.219451">
 <ele>761.5</ele>
 <time>2020-03-24T13:02:24Z</time>
</trkpt>
</trkseg>
</trk>
</gpx>

